Time,TemperatureF,DewpointF,PressureIn,WindDirection,WindDirectionDegrees,WindSpeedMPH,WindSpeedGustMPH,Humidity,HourlyPrecipIn,Conditions,Clouds,dailyrainin,SoftwareType,DateUTC
2013-01-19 00:03:00,16.0,11.9,29.61,ENE,67,0.0,0.0,84,0.00,,,0.00,WUHU21623XXSP,2013-01-19 06:03:00,
2013-01-19 00:08:00,16.0,11.9,29.61,ENE,67,0.0,0.0,84,0.00,,,0.00,WUHU21623XXSP,2013-01-19 06:08:00,
2013-01-19 00:13:00,16.0,11.9,29.62,ENE,67,0.0,0.0,84,0.00,,,0.00,WUHU21623XXSP,2013-01-19 06:13:00,
2013-01-19 00:18:00,16.0,11.9,29.61,ESE,112,0.0,0.0,84,0.00,,,0.00,WUHU21623XXSP,2013-01-19 06:18:00,
2013-01-19 00:23:00,16.0,11.9,29.62,ESE,112,0.0,0.0,84,0.00,,,0.00,WUHU21623XXSP,2013-01-19 06:23:00,
2013-01-19 00:28:00,16.0,11.9,29.61,ESE,112,0.0,0.0,84,0.00,,,0.00,WUHU21623XXSP,2013-01-19 06:28:00,
2013-01-19 00:33:00,16.0,11.9,29.61,ESE,112,0.0,0.0,84,0.00,,,0.00,WUHU21623XXSP,2013-01-19 06:33:00,
2013-01-19 00:38:00,16.0,11.9,29.61,ESE,112,0.0,0.0,84,0.00,,,0.00,WUHU21623XXSP,2013-01-19 06:38:00,
2013-01-19 00:43:00,16.0,11.9,29.61,ESE,112,0.0,0.0,84,0.00,,,0.00,WUHU21623XXSP,2013-01-19 06:43:00,
2013-01-19 00:48:00,16.2,12.1,29.61,ESE,112,0.0,0.0,84,0.00,,,0.00,WUHU21623XXSP,2013-01-19 06:48:00,
2013-01-19 00:53:00,16.2,12.1,29.61,ESE,112,0.0,0.0,84,0.00,,,0.00,WUHU21623XXSP,2013-01-19 06:53:00,
2013-01-19 00:58:00,16.3,12.3,29.61,SE,135,0.0,0.0,84,0.00,,,0.00,WUHU21623XXSP,2013-01-19 06:58:00,
2013-01-19 01:03:00,16.3,12.3,29.62,SE,135,0.0,0.0,84,0.00,,,0.00,WUHU21623XXSP,2013-01-19 07:03:00,
2013-01-19 01:08:00,16.3,12.3,29.62,SE,135,0.0,0.0,84,0.00,,,0.00,WUHU21623XXSP,2013-01-19 07:08:00,
2013-01-19 01:13:00,16.3,12.3,29.62,SE,135,0.0,0.0,84,0.00,,,0.00,WUHU21623XXSP,2013-01-19 07:13:00,
2013-01-19 01:18:00,16.3,12.3,29.61,SE,135,0.0,0.0,84,0.00,,,0.00,WUHU21623XXSP,2013-01-19 07:18:00,
2013-01-19 01:23:00,16.3,12.3,29.61,SE,135,0.0,0.0,84,0.00,,,0.00,WUHU21623XXSP,2013-01-19 07:23:00,
2013-01-19 01:28:00,16.3,12.3,29.61,SE,135,0.0,0.0,84,0.00,,,0.00,WUHU21623XXSP,2013-01-19 07:28:00,
2013-01-19 01:33:00,16.5,12.4,29.60,SE,135,0.0,0.0,84,0.00,,,0.00,WUHU21623XXSP,2013-01-19 07:33:00,
2013-01-19 01:38:00,16.5,12.4,29.60,SSE,157,0.0,0.0,84,0.00,,,0.00,WUHU21623XXSP,2013-01-19 07:38:00,
2013-01-19 01:43:00,16.7,12.6,29.60,SSE,157,0.0,0.0,84,0.00,,,0.00,WUHU21623XXSP,2013-01-19 07:43:00,
2013-01-19 01:48:00,16.7,12.6,29.60,SSE,157,0.0,0.0,84,0.00,,,0.00,WUHU21623XXSP,2013-01-19 07:48:00,
2013-01-19 01:53:00,16.9,12.8,29.60,SSE,157,0.0,0.0,84,0.00,,,0.00,WUHU21623XXSP,2013-01-19 07:53:00,
2013-01-19 01:58:00,16.9,12.8,29.60,SSE,157,0.0,0.0,84,0.00,,,0.00,WUHU21623XXSP,2013-01-19 07:58:00,
2013-01-19 02:03:00,16.9,12.8,29.60,SSE,157,0.0,0.0,84,0.00,,,0.00,WUHU21623XXSP,2013-01-19 08:03:00,
2013-01-19 02:08:00,16.9,12.8,29.60,SSE,157,0.0,0.0,84,0.00,,,0.00,WUHU21623XXSP,2013-01-19 08:08:00,
2013-01-19 02:13:00,17.2,13.1,29.61,SSE,157,0.0,0.0,84,0.00,,,0.00,WUHU21623XXSP,2013-01-19 08:13:00,
2013-01-19 02:18:00,17.2,13.1,29.61,SSE,157,0.0,0.0,84,0.00,,,0.00,WUHU21623XXSP,2013-01-19 08:18:00,
2013-01-19 02:23:00,17.2,13.1,29.60,SSE,157,0.0,0.0,84,0.00,,,0.00,WUHU21623XXSP,2013-01-19 08:23:00,
2013-01-19 02:28:00,17.2,13.1,29.60,SE,135,0.0,0.0,84,0.00,,,0.00,WUHU21623XXSP,2013-01-19 08:28:00,
2013-01-19 02:33:00,17.4,13.3,29.60,ESE,112,0.0,0.0,84,0.00,,,0.00,WUHU21623XXSP,2013-01-19 08:33:00,
2013-01-19 02:38:00,17.4,13.3,29.60,SSE,157,0.0,0.0,84,0.00,,,0.00,WUHU21623XXSP,2013-01-19 08:38:00,
2013-01-19 02:43:00,17.4,13.3,29.60,SSE,157,0.0,0.0,84,0.00,,,0.00,WUHU21623XXSP,2013-01-19 08:43:00,
2013-01-19 02:48:00,17.4,13.3,29.60,SSE,157,0.0,0.0,84,0.00,,,0.00,WUHU21623XXSP,2013-01-19 08:48:00,
2013-01-19 02:53:00,17.6,13.5,29.59,SE,135,0.0,0.0,84,0.00,,,0.00,WUHU21623XXSP,2013-01-19 08:53:00,
2013-01-19 02:58:00,17.8,13.6,29.59,SSE,157,0.0,0.0,84,0.00,,,0.00,WUHU21623XXSP,2013-01-19 08:58:00,
2013-01-19 03:03:00,17.8,13.6,29.59,SSE,157,0.0,0.0,84,0.00,,,0.00,WUHU21623XXSP,2013-01-19 09:03:00,
2013-01-19 03:08:00,18.0,13.8,29.58,SSE,157,0.0,0.0,84,0.00,,,0.00,WUHU21623XXSP,2013-01-19 09:08:00,
2013-01-19 03:13:00,18.1,14.0,29.59,SSE,157,0.0,0.0,84,0.00,,,0.00,WUHU21623XXSP,2013-01-19 09:13:00,
2013-01-19 03:18:00,18.1,14.0,29.59,SSE,157,0.0,0.0,84,0.00,,,0.00,WUHU21623XXSP,2013-01-19 09:18:00,
2013-01-19 03:23:00,18.3,14.2,29.58,SSE,157,0.0,0.0,84,0.00,,,0.00,WUHU21623XXSP,2013-01-19 09:23:00,
2013-01-19 03:28:00,18.3,14.2,29.58,SSE,157,0.0,0.0,84,0.00,,,0.00,WUHU21623XXSP,2013-01-19 09:28:00,
2013-01-19 03:33:00,18.3,14.2,29.58,South,180,0.0,0.0,84,0.00,,,0.00,WUHU21623XXSP,2013-01-19 09:33:00,
2013-01-19 03:38:00,18.5,14.4,29.57,SSE,157,0.0,0.0,84,0.00,,,0.00,WUHU21623XXSP,2013-01-19 09:38:00,
2013-01-19 03:43:00,18.7,14.5,29.57,SSE,157,0.0,0.0,84,0.00,,,0.00,WUHU21623XXSP,2013-01-19 09:43:00,
2013-01-19 03:48:00,18.7,14.5,29.57,SE,135,0.0,0.0,84,0.00,,,0.00,WUHU21623XXSP,2013-01-19 09:48:00,
2013-01-19 03:53:00,18.7,14.5,29.57,SSE,157,0.0,0.0,84,0.00,,,0.00,WUHU21623XXSP,2013-01-19 09:53:00,
2013-01-19 03:58:00,18.9,14.7,29.57,SSE,157,0.0,0.0,84,0.00,,,0.00,WUHU21623XXSP,2013-01-19 09:58:00,
2013-01-19 04:03:00,18.9,14.7,29.56,SE,135,0.0,0.0,84,0.00,,,0.00,WUHU21623XXSP,2013-01-19 10:03:00,
2013-01-19 04:08:00,18.7,14.5,29.56,SE,135,0.0,0.0,84,0.00,,,0.00,WUHU21623XXSP,2013-01-19 10:08:00,
2013-01-19 04:13:00,18.9,14.7,29.56,SE,135,0.0,0.0,84,0.00,,,0.00,WUHU21623XXSP,2013-01-19 10:13:00,
2013-01-19 04:18:00,18.9,14.7,29.56,SE,135,0.0,0.0,84,0.00,,,0.00,WUHU21623XXSP,2013-01-19 10:18:00,
2013-01-19 04:23:00,18.9,15.0,29.55,South,180,0.0,0.0,85,0.00,,,0.00,WUHU21623XXSP,2013-01-19 10:23:00,
2013-01-19 04:28:00,19.0,15.2,29.55,SSE,157,0.0,0.0,85,0.00,,,0.00,WUHU21623XXSP,2013-01-19 10:28:00,
2013-01-19 04:34:00,19.2,15.3,29.54,SSE,157,0.0,0.0,85,0.00,,,0.00,WUHU21623XXSP,2013-01-19 10:34:00,
2013-01-19 04:39:00,19.2,15.3,29.54,SSE,157,0.0,0.0,85,0.00,,,0.00,WUHU21623XXSP,2013-01-19 10:39:00,
2013-01-19 04:44:00,19.2,15.3,29.53,SE,135,0.0,0.0,85,0.00,,,0.00,WUHU21623XXSP,2013-01-19 10:44:00,
2013-01-19 04:49:00,19.2,15.3,29.54,SSE,157,0.0,0.0,85,0.00,,,0.00,WUHU21623XXSP,2013-01-19 10:49:00,
2013-01-19 04:54:00,19.4,15.5,29.53,SE,135,0.0,0.0,85,0.00,,,0.00,WUHU21623XXSP,2013-01-19 10:54:00,
2013-01-19 04:59:00,19.6,15.7,29.53,South,180,0.0,0.0,85,0.00,,,0.00,WUHU21623XXSP,2013-01-19 10:59:00,
2013-01-19 05:04:00,19.6,15.7,29.53,SSE,157,0.0,0.0,85,0.00,,,0.00,WUHU21623XXSP,2013-01-19 11:04:00,
2013-01-19 05:09:00,19.6,15.7,29.53,SSW,202,0.0,0.0,85,0.00,,,0.00,WUHU21623XXSP,2013-01-19 11:09:00,
2013-01-19 05:14:00,19.6,15.7,29.52,SSE,157,0.0,0.0,85,0.00,,,0.00,WUHU21623XXSP,2013-01-19 11:14:00,
2013-01-19 05:15:00,19.6,15.7,29.52,SSW,202,0.0,0.0,85,0.00,,,0.00,WUHU21623XXSP,2013-01-19 11:15:00,
2013-01-19 05:21:00,19.8,15.9,29.52,SSE,157,0.0,0.0,85,0.00,,,0.00,WUHU21623XXSP,2013-01-19 11:21:00,
2013-01-19 05:27:00,19.9,16.1,29.52,SSE,157,0.0,0.0,85,0.00,,,0.00,WUHU21623XXSP,2013-01-19 11:27:00,
2013-01-19 05:32:00,19.9,16.1,29.52,SSE,157,0.0,0.0,85,0.00,,,0.00,WUHU21623XXSP,2013-01-19 11:32:00,
2013-01-19 05:38:00,19.9,15.8,29.51,SSE,157,0.0,0.0,84,0.00,,,0.00,WUHU21623XXSP,2013-01-19 11:38:00,
2013-01-19 05:44:00,20.1,16.0,29.51,SSE,157,0.0,0.0,84,0.00,,,0.00,WUHU21623XXSP,2013-01-19 11:44:00,
2013-01-19 06:03:00,20.5,16.3,29.50,SE,135,0.0,0.0,84,0.00,,,0.00,WUHU21623XXSP,2013-01-19 12:03:00,
2013-01-19 06:08:00,20.5,16.1,29.51,SSE,157,0.0,0.0,83,0.00,,,0.00,WUHU21623XXSP,2013-01-19 12:08:00,
2013-01-19 06:14:00,20.5,16.1,29.51,SSE,157,0.0,0.0,83,0.00,,,0.00,WUHU21623XXSP,2013-01-19 12:14:00,
2013-01-19 06:20:00,20.5,16.1,29.50,SE,135,0.0,0.0,83,0.00,,,0.00,WUHU21623XXSP,2013-01-19 12:20:00,
2013-01-19 06:26:00,20.5,16.1,29.50,SE,135,0.0,0.0,83,0.00,,,0.00,WUHU21623XXSP,2013-01-19 12:26:00,
2013-01-19 06:32:00,20.5,16.1,29.49,SE,135,0.0,0.0,83,0.00,,,0.00,WUHU21623XXSP,2013-01-19 12:32:00,
2013-01-19 06:47:00,20.3,16.2,29.49,SE,135,0.0,0.0,84,0.00,,,0.00,WUHU21623XXSP,2013-01-19 12:47:00,
2013-01-19 06:48:00,20.3,16.2,29.49,SE,135,0.0,0.0,84,0.00,,,0.00,WUHU21623XXSP,2013-01-19 12:48:00,
2013-01-19 06:53:00,20.5,16.3,29.49,SSE,157,0.0,0.0,84,0.00,,,0.00,WUHU21623XXSP,2013-01-19 12:53:00,
2013-01-19 06:58:00,20.5,16.3,29.49,SSE,157,0.0,0.0,84,0.00,,,0.00,WUHU21623XXSP,2013-01-19 12:58:00,
2013-01-19 07:03:00,20.5,16.3,29.49,South,180,0.0,0.0,84,0.00,,,0.00,WUHU21623XXSP,2013-01-19 13:03:00,
2013-01-19 07:08:00,20.5,16.1,29.49,SSE,157,0.0,0.0,83,0.00,,,0.00,WUHU21623XXSP,2013-01-19 13:08:00,
2013-01-19 07:13:00,20.5,16.3,29.48,SSE,157,0.0,0.0,84,0.00,,,0.00,WUHU21623XXSP,2013-01-19 13:13:00,
2013-01-19 07:18:00,20.5,16.3,29.48,SE,135,0.0,0.0,84,0.00,,,0.00,WUHU21623XXSP,2013-01-19 13:18:00,
2013-01-19 07:23:00,20.7,16.5,29.48,SSE,157,0.0,0.0,84,0.00,,,0.00,WUHU21623XXSP,2013-01-19 13:23:00,
2013-01-19 07:28:00,20.8,16.7,29.48,SSE,157,0.0,0.0,84,0.00,,,0.00,WUHU21623XXSP,2013-01-19 13:28:00,
2013-01-19 07:33:00,20.8,16.7,29.48,SSE,157,0.0,0.0,84,0.00,,,0.00,WUHU21623XXSP,2013-01-19 13:33:00,
2013-01-19 07:38:00,21.0,16.9,29.48,SW,225,0.0,0.0,84,0.00,,,0.00,WUHU21623XXSP,2013-01-19 13:38:00,
2013-01-19 07:43:00,21.0,16.9,29.48,SSE,157,0.0,0.0,84,0.00,,,0.00,WUHU21623XXSP,2013-01-19 13:43:00,
2013-01-19 07:48:00,21.0,16.6,29.47,SSE,157,0.0,0.0,83,0.00,,,0.00,WUHU21623XXSP,2013-01-19 13:48:00,
2013-01-19 07:53:00,21.0,16.9,29.47,SW,225,0.0,0.0,84,0.00,,,0.00,WUHU21623XXSP,2013-01-19 13:53:00,
2013-01-19 07:58:00,21.0,16.9,29.47,SSW,202,0.0,0.0,84,0.00,,,0.00,WUHU21623XXSP,2013-01-19 13:58:00,
2013-01-19 08:03:00,21.0,16.9,29.48,SSW,202,0.0,0.0,84,0.00,,,0.00,WUHU21623XXSP,2013-01-19 14:03:00,
2013-01-19 08:08:00,21.0,16.9,29.48,South,180,0.0,0.0,84,0.00,,,0.00,WUHU21623XXSP,2013-01-19 14:08:00,
2013-01-19 08:13:00,21.0,16.9,29.48,SE,135,0.0,0.0,84,0.00,,,0.00,WUHU21623XXSP,2013-01-19 14:13:00,
2013-01-19 08:18:00,21.0,16.9,29.48,South,180,0.0,0.0,84,0.00,,,0.00,WUHU21623XXSP,2013-01-19 14:18:00,
2013-01-19 08:23:00,21.0,16.9,29.48,SSW,202,0.0,0.0,84,0.00,,,0.00,WUHU21623XXSP,2013-01-19 14:23:00,
2013-01-19 08:28:00,21.0,16.9,29.48,SSE,157,0.0,0.0,84,0.00,,,0.00,WUHU21623XXSP,2013-01-19 14:28:00,
2013-01-19 08:33:00,21.0,16.9,29.48,South,180,0.0,0.0,84,0.00,,,0.00,WUHU21623XXSP,2013-01-19 14:33:00,
2013-01-19 08:38:00,21.0,16.9,29.47,SSE,157,0.0,0.0,84,0.00,,,0.00,WUHU21623XXSP,2013-01-19 14:38:00,
2013-01-19 08:43:00,21.0,16.9,29.47,South,180,0.0,0.0,84,0.00,,,0.00,WUHU21623XXSP,2013-01-19 14:43:00,
2013-01-19 08:48:00,21.4,17.5,29.47,SSW,202,0.0,0.0,85,0.00,,,0.00,WUHU21623XXSP,2013-01-19 14:48:00,
2013-01-19 08:53:00,21.4,17.5,29.47,SSW,202,0.0,0.0,85,0.00,,,0.00,WUHU21623XXSP,2013-01-19 14:53:00,
2013-01-19 08:58:00,21.4,17.5,29.47,South,180,0.0,0.0,85,0.00,,,0.00,WUHU21623XXSP,2013-01-19 14:58:00,
2013-01-19 09:03:00,21.4,17.5,29.47,South,180,0.0,0.0,85,0.00,,,0.00,WUHU21623XXSP,2013-01-19 15:03:00,
2013-01-19 09:08:00,21.6,17.7,29.47,SSW,202,0.0,0.0,85,0.00,,,0.00,WUHU21623XXSP,2013-01-19 15:08:00,
2013-01-19 09:13:00,21.6,18.0,29.47,SSW,202,0.0,0.0,86,0.00,,,0.00,WUHU21623XXSP,2013-01-19 15:13:00,
2013-01-19 09:18:00,21.6,18.0,29.47,SSW,202,0.0,0.0,86,0.00,,,0.00,WUHU21623XXSP,2013-01-19 15:18:00,
2013-01-19 09:23:00,21.7,18.1,29.47,SSW,202,0.0,0.0,86,0.00,,,0.00,WUHU21623XXSP,2013-01-19 15:23:00,
2013-01-19 09:28:00,21.7,18.1,29.47,WSW,247,0.0,0.0,86,0.00,,,0.00,WUHU21623XXSP,2013-01-19 15:28:00,
2013-01-19 09:33:00,21.7,18.1,29.47,South,180,0.0,0.0,86,0.00,,,0.00,WUHU21623XXSP,2013-01-19 15:33:00,
2013-01-19 09:38:00,21.9,18.3,29.47,South,180,0.0,0.0,86,0.00,,,0.00,WUHU21623XXSP,2013-01-19 15:38:00,
2013-01-19 09:43:00,21.9,18.3,29.46,West,270,0.0,0.0,86,0.00,,,0.00,WUHU21623XXSP,2013-01-19 15:43:00,
2013-01-19 09:48:00,22.1,18.5,29.46,SSE,157,0.0,0.0,86,0.00,,,0.00,WUHU21623XXSP,2013-01-19 15:48:00,
2013-01-19 09:53:00,22.1,18.5,29.46,SW,225,0.0,0.0,86,0.00,,,0.00,WUHU21623XXSP,2013-01-19 15:53:00,
2013-01-19 09:58:00,22.3,18.7,29.46,South,180,0.0,0.0,86,0.00,,,0.00,WUHU21623XXSP,2013-01-19 15:58:00,
2013-01-19 10:03:00,22.3,18.7,29.46,West,270,0.0,0.0,86,0.00,,,0.00,WUHU21623XXSP,2013-01-19 16:03:00,
2013-01-19 10:08:00,22.6,19.0,29.46,SSW,202,0.0,0.0,86,0.00,,,0.00,WUHU21623XXSP,2013-01-19 16:08:00,
2013-01-19 10:13:00,22.8,19.2,29.46,WSW,247,0.0,0.0,86,0.00,,,0.00,WUHU21623XXSP,2013-01-19 16:13:00,
2013-01-19 10:18:00,22.8,19.2,29.46,SW,225,0.0,0.0,86,0.00,,,0.00,WUHU21623XXSP,2013-01-19 16:18:00,
2013-01-19 10:23:00,22.8,19.2,29.46,SSW,202,0.0,0.0,86,0.00,,,0.00,WUHU21623XXSP,2013-01-19 16:23:00,
2013-01-19 10:28:00,22.8,19.2,29.45,WNW,292,0.0,0.0,86,0.00,,,0.00,WUHU21623XXSP,2013-01-19 16:28:00,
2013-01-19 10:33:00,22.8,19.2,29.46,West,270,0.0,0.0,86,0.00,,,0.00,WUHU21623XXSP,2013-01-19 16:33:00,
2013-01-19 10:38:00,22.8,19.2,29.45,West,270,0.0,0.0,86,0.00,,,0.00,WUHU21623XXSP,2013-01-19 16:38:00,
2013-01-19 10:43:00,23.0,19.4,29.46,West,270,0.0,0.0,86,0.00,,,0.00,WUHU21623XXSP,2013-01-19 16:43:00,
2013-01-19 10:48:00,23.2,19.6,29.46,WNW,292,0.0,0.0,86,0.00,,,0.00,WUHU21623XXSP,2013-01-19 16:48:00,
2013-01-19 10:53:00,22.8,19.5,29.46,WSW,247,0.0,0.0,87,0.00,,,0.00,WUHU21623XXSP,2013-01-19 16:53:00,
2013-01-19 10:58:00,22.6,19.0,29.45,West,270,0.0,0.0,86,0.00,,,0.00,WUHU21623XXSP,2013-01-19 16:58:00,
2013-01-19 11:03:00,22.5,18.9,29.44,WNW,292,0.0,0.0,86,0.00,,,0.00,WUHU21623XXSP,2013-01-19 17:03:00,
2013-01-19 11:09:00,22.3,18.7,29.44,West,270,0.0,0.0,86,0.00,,,0.00,WUHU21623XXSP,2013-01-19 17:09:00,
2013-01-19 11:14:00,22.3,18.7,29.45,NNW,337,0.0,0.0,86,0.00,,,0.00,WUHU21623XXSP,2013-01-19 17:14:00,
2013-01-19 11:19:00,22.1,18.2,29.45,WNW,292,0.0,0.0,85,0.00,,,0.00,WUHU21623XXSP,2013-01-19 17:19:00,
2013-01-19 11:24:00,21.6,17.7,29.46,WNW,292,0.0,0.0,85,0.00,,,0.00,WUHU21623XXSP,2013-01-19 17:24:00,
2013-01-19 11:29:00,21.0,16.9,29.46,WNW,292,0.0,0.0,84,0.00,,,0.00,WUHU21623XXSP,2013-01-19 17:29:00,
2013-01-19 11:34:00,20.8,16.7,29.46,West,270,0.0,0.0,84,0.00,,,0.00,WUHU21623XXSP,2013-01-19 17:34:00,
2013-01-19 11:39:00,20.5,16.3,29.45,WNW,292,0.0,0.0,84,0.00,,,0.00,WUHU21623XXSP,2013-01-19 17:39:00,
2013-01-19 11:44:00,20.3,15.9,29.45,WNW,292,0.0,0.0,83,0.00,,,0.00,WUHU21623XXSP,2013-01-19 17:44:00,
2013-01-19 11:49:00,19.9,15.3,29.46,West,270,0.0,0.0,82,0.00,,,0.00,WUHU21623XXSP,2013-01-19 17:49:00,
2013-01-19 11:54:00,19.6,14.9,29.45,NW,315,0.0,0.0,82,0.00,,,0.00,WUHU21623XXSP,2013-01-19 17:54:00,
2013-01-19 11:59:00,19.2,14.5,29.46,NW,315,0.0,0.0,82,0.00,,,0.00,WUHU21623XXSP,2013-01-19 17:59:00,
2013-01-19 12:05:00,19.0,14.1,29.46,NW,315,0.0,0.0,81,0.00,,,0.00,WUHU21623XXSP,2013-01-19 18:05:00,
2013-01-19 12:10:00,19.0,14.1,29.45,WNW,292,0.0,0.0,81,0.00,,,0.00,WUHU21623XXSP,2013-01-19 18:10:00,
2013-01-19 12:15:00,18.9,13.9,29.45,WNW,292,0.0,0.0,81,0.00,,,0.00,WUHU21623XXSP,2013-01-19 18:15:00,
2013-01-19 12:20:00,19.2,14.3,29.45,WNW,292,0.0,0.0,81,0.00,,,0.00,WUHU21623XXSP,2013-01-19 18:20:00,
2013-01-19 12:25:00,19.0,14.4,29.45,WNW,292,0.0,0.0,82,0.00,,,0.00,WUHU21623XXSP,2013-01-19 18:25:00,
2013-01-19 12:30:00,18.5,13.6,29.45,NNW,337,0.0,0.0,81,0.00,,,0.00,WUHU21623XXSP,2013-01-19 18:30:00,
2013-01-19 12:35:00,18.5,13.6,29.46,WNW,292,0.0,0.0,81,0.00,,,0.00,WUHU21623XXSP,2013-01-19 18:35:00,
2013-01-19 12:40:00,18.1,12.9,29.46,WNW,292,0.0,0.0,80,0.00,,,0.00,WUHU21623XXSP,2013-01-19 18:40:00,
2013-01-19 12:45:00,17.8,12.6,29.46,WNW,292,0.0,0.0,80,0.00,,,0.00,WUHU21623XXSP,2013-01-19 18:45:00,
2013-01-19 12:50:00,17.4,11.9,29.46,WNW,292,0.0,0.0,79,0.00,,,0.00,WUHU21623XXSP,2013-01-19 18:50:00,
2013-01-19 12:55:00,17.2,11.8,29.47,NNW,337,0.0,0.0,79,0.00,,,0.00,WUHU21623XXSP,2013-01-19 18:55:00,
2013-01-19 13:01:00,17.2,11.5,29.47,West,270,4.3,7.8,78,0.00,,,0.00,WUHU21623XXSP,2013-01-19 19:01:00,
2013-01-19 13:06:00,17.1,10.7,29.47,West,270,8.5,16.3,76,0.00,,,0.00,WUHU21623XXSP,2013-01-19 19:06:00,
2013-01-19 13:11:00,16.7,10.1,29.47,WNW,296,7.8,17.2,75,0.00,,,0.00,WUHU21623XXSP,2013-01-19 19:11:00,
2013-01-19 13:16:00,16.3,9.4,29.47,NW,315,11.9,19.9,74,0.00,,,0.00,WUHU21623XXSP,2013-01-19 19:16:00,
2013-01-19 13:22:00,16.0,9.7,29.47,WNW,292,15.2,20.4,76,0.00,,,0.00,WUHU21623XXSP,2013-01-19 19:22:00,
2013-01-19 13:27:00,15.8,9.2,29.48,WNW,297,11.0,20.4,75,0.00,,,0.00,WUHU21623XXSP,2013-01-19 19:27:00,
2013-01-19 13:32:00,15.6,9.1,29.47,NW,306,15.5,22.6,75,0.00,,,0.00,WUHU21623XXSP,2013-01-19 19:32:00,
2013-01-19 13:37:00,15.1,9.1,29.48,NW,311,9.4,22.6,77,0.00,,,0.00,WUHU21623XXSP,2013-01-19 19:37:00,
2013-01-19 13:43:00,14.7,9.7,29.48,WNW,302,11.3,20.4,80,0.00,,,0.00,WUHU21623XXSP,2013-01-19 19:43:00,
2013-01-19 13:48:00,14.4,9.0,29.48,NW,311,10.0,20.4,79,0.00,,,0.00,WUHU21623XXSP,2013-01-19 19:48:00,
2013-01-19 13:53:00,14.2,8.8,29.49,WNW,301,10.9,17.9,79,0.00,,,0.00,WUHU21623XXSP,2013-01-19 19:53:00,
2013-01-19 13:58:00,13.8,8.5,29.49,NW,312,10.2,16.3,79,0.00,,,0.00,WUHU21623XXSP,2013-01-19 19:58:00,
2013-01-19 14:03:00,13.6,7.4,29.49,WNW,301,12.0,17.9,76,0.00,,,0.00,WUHU21623XXSP,2013-01-19 20:03:00,
2013-01-19 14:08:00,13.6,7.7,29.50,WNW,292,10.7,17.9,77,0.00,,,0.00,WUHU21623XXSP,2013-01-19 20:08:00,
2013-01-19 14:14:00,13.3,7.1,29.50,WNW,283,11.9,19.2,76,0.00,,,0.00,WUHU21623XXSP,2013-01-19 20:14:00,
2013-01-19 14:19:00,12.9,7.0,29.50,NNW,337,12.5,22.4,77,0.00,,,0.00,WUHU21623XXSP,2013-01-19 20:19:00,
2013-01-19 14:24:00,13.1,6.9,29.51,WNW,292,13.0,22.4,76,0.00,,,0.00,WUHU21623XXSP,2013-01-19 20:24:00,
2013-01-19 14:29:00,12.7,6.5,29.51,WNW,292,9.6,19.5,76,0.00,,,0.00,WUHU21623XXSP,2013-01-19 20:29:00,
2013-01-19 14:34:00,12.2,6.3,29.51,WNW,294,8.7,19.7,77,0.00,,,0.00,WUHU21623XXSP,2013-01-19 20:34:00,
2013-01-19 14:39:00,11.8,6.2,29.51,NW,306,11.5,20.1,78,0.00,,,0.00,WUHU21623XXSP,2013-01-19 20:39:00,
2013-01-19 14:44:00,11.1,5.5,29.52,NW,315,10.7,20.1,78,0.00,,,0.00,WUHU21623XXSP,2013-01-19 20:44:00,
2013-01-19 14:49:00,10.8,5.1,29.52,West,270,15.2,18.8,78,0.00,,,0.00,WUHU21623XXSP,2013-01-19 20:49:00,
2013-01-19 14:54:00,10.6,5.0,29.53,NNW,337,7.8,19.2,78,0.00,,,0.00,WUHU21623XXSP,2013-01-19 20:54:00,
2013-01-19 14:59:00,10.6,5.3,29.53,WNW,298,9.5,19.2,79,0.00,,,0.00,WUHU21623XXSP,2013-01-19 20:59:00,
2013-01-19 15:04:00,10.2,5.2,29.54,WNW,292,9.4,16.1,80,0.00,,,0.00,WUHU21623XXSP,2013-01-19 21:04:00,
2013-01-19 15:10:00,10.2,5.2,29.54,WNW,293,8.6,16.1,80,0.00,,,0.00,WUHU21623XXSP,2013-01-19 21:10:00,
2013-01-19 15:15:00,9.9,4.3,29.55,NW,315,10.7,20.8,78,0.00,,,0.00,WUHU21623XXSP,2013-01-19 21:15:00,
2013-01-19 15:21:00,9.3,3.0,29.56,WNW,298,14.3,25.5,75,0.00,,,0.00,WUHU21623XXSP,2013-01-19 21:21:00,
2013-01-19 15:25:00,9.0,2.3,29.56,NW,311,10.7,25.5,74,0.00,,,0.00,WUHU21623XXSP,2013-01-19 21:25:00,
2013-01-19 15:31:00,8.6,2.3,29.57,NW,310,12.0,24.6,75,0.00,,,0.00,WUHU21623XXSP,2013-01-19 21:31:00,
2013-01-19 15:36:00,8.4,2.4,29.57,NW,311,9.1,24.6,76,0.00,,,0.00,WUHU21623XXSP,2013-01-19 21:36:00,
2013-01-19 15:41:00,8.1,1.8,29.57,WNW,297,12.3,25.1,75,0.00,,,0.00,WUHU21623XXSP,2013-01-19 21:41:00,
2013-01-19 15:46:00,7.5,1.2,29.58,NW,308,9.6,25.1,75,0.00,,,0.00,WUHU21623XXSP,2013-01-19 21:46:00,
2013-01-19 15:52:00,7.2,0.9,29.59,WNW,302,12.5,20.8,75,0.00,,,0.00,WUHU21623XXSP,2013-01-19 21:52:00,
2013-01-19 15:57:00,7.0,0.7,29.59,NNW,337,25.3,25.3,75,0.00,,,0.00,WUHU21623XXSP,2013-01-19 21:57:00,
2013-01-19 16:02:00,6.6,0.6,29.60,NW,308,12.6,25.3,76,0.00,,,0.00,WUHU21623XXSP,2013-01-19 22:02:00,
2013-01-19 16:07:00,6.4,0.7,29.60,NW,315,10.7,24.8,77,0.00,,,0.00,WUHU21623XXSP,2013-01-19 22:07:00,
2013-01-19 16:12:00,6.1,0.6,29.60,WNW,298,7.6,23.3,78,0.00,,,0.00,WUHU21623XXSP,2013-01-19 22:12:00,
2013-01-19 16:18:00,6.1,0.6,29.61,NW,315,13.0,18.6,78,0.00,,,0.00,WUHU21623XXSP,2013-01-19 22:18:00,
2013-01-19 16:23:00,6.1,0.4,29.62,NW,307,17.6,23.3,77,0.00,,,0.00,WUHU21623XXSP,2013-01-19 22:23:00,
2013-01-19 16:28:00,5.7,-0.6,29.62,WNW,298,12.0,23.3,75,0.00,,,0.00,WUHU21623XXSP,2013-01-19 22:28:00,
2013-01-19 16:33:00,5.4,-0.9,29.62,WNW,292,12.8,25.1,75,0.00,,,0.00,WUHU21623XXSP,2013-01-19 22:33:00,
2013-01-19 16:38:00,4.8,-1.8,29.63,WNW,300,11.9,25.1,74,0.00,,,0.00,WUHU21623XXSP,2013-01-19 22:38:00,
2013-01-19 16:43:00,4.8,-1.2,29.64,WNW,292,11.9,22.6,76,0.00,,,0.00,WUHU21623XXSP,2013-01-19 22:43:00,
2013-01-19 16:48:00,4.5,-2.1,29.63,WNW,292,11.4,25.9,74,0.00,,,0.00,WUHU21623XXSP,2013-01-19 22:48:00,
2013-01-19 16:53:00,4.1,-2.7,29.64,NW,309,16.1,25.9,73,0.00,,,0.00,WUHU21623XXSP,2013-01-19 22:53:00,
2013-01-19 16:58:00,3.9,-2.9,29.65,NW,305,13.2,23.3,73,0.00,,,0.00,WUHU21623XXSP,2013-01-19 22:58:00,
2013-01-19 17:04:00,3.7,-2.7,29.65,NW,304,13.2,20.4,74,0.00,,,0.00,WUHU21623XXSP,2013-01-19 23:04:00,
2013-01-19 17:09:00,3.4,-2.8,29.66,NW,314,10.5,20.4,75,0.00,,,0.00,WUHU21623XXSP,2013-01-19 23:09:00,
2013-01-19 17:14:00,3.2,-3.0,29.66,NW,315,18.1,18.3,75,0.00,,,0.00,WUHU21623XXSP,2013-01-19 23:14:00,
2013-01-19 17:19:00,3.0,-3.5,29.67,NW,315,13.0,18.1,74,0.00,,,0.00,WUHU21623XXSP,2013-01-19 23:19:00,
2013-01-19 17:24:00,2.5,-4.3,29.67,NW,308,11.0,19.9,73,0.00,,,0.00,WUHU21623XXSP,2013-01-19 23:24:00,
2013-01-19 17:29:00,1.9,-4.2,29.68,NW,309,17.0,24.2,75,0.00,,,0.00,WUHU21623XXSP,2013-01-19 23:29:00,
2013-01-19 17:34:00,1.8,-4.5,29.68,WNW,285,12.2,24.2,75,0.00,,,0.00,WUHU21623XXSP,2013-01-19 23:34:00,
2013-01-19 17:39:00,1.6,-4.2,29.69,WNW,296,11.4,19.9,76,0.00,,,0.00,WUHU21623XXSP,2013-01-19 23:39:00,
2013-01-19 17:44:00,1.4,-4.5,29.69,WNW,292,16.6,19.5,76,0.00,,,0.00,WUHU21623XXSP,2013-01-19 23:44:00,
2013-01-19 17:49:00,1.4,-4.5,29.70,North,0,11.4,17.7,76,0.00,,,0.00,WUHU21623XXSP,2013-01-19 23:49:00,
2013-01-19 17:54:00,1.2,-5.0,29.70,WNW,292,13.0,19.9,75,0.00,,,0.00,WUHU21623XXSP,2013-01-19 23:54:00,
2013-01-19 18:00:00,1.0,-5.4,29.70,NW,307,12.9,19.9,74,0.00,,,0.00,WUHU21623XXSP,2013-01-20 00:00:00,
2013-01-19 18:05:00,0.9,-5.6,29.71,NW,306,7.5,25.9,74,0.00,,,0.00,WUHU21623XXSP,2013-01-20 00:05:00,
2013-01-19 18:10:00,0.9,-5.1,29.72,NW,306,10.5,25.9,76,0.00,,,0.00,WUHU21623XXSP,2013-01-20 00:10:00,
2013-01-19 18:15:00,0.7,-5.2,29.73,NW,315,18.3,20.1,76,0.00,,,0.00,WUHU21623XXSP,2013-01-20 00:15:00,
2013-01-19 18:20:00,0.5,-5.7,29.73,NW,315,11.9,22.6,75,0.00,,,0.00,WUHU21623XXSP,2013-01-20 00:20:00,
2013-01-19 18:25:00,0.3,-5.8,29.74,NW,315,15.0,24.6,75,0.00,,,0.00,WUHU21623XXSP,2013-01-20 00:25:00,
2013-01-19 18:30:00,0.0,-6.2,29.75,NW,309,14.0,24.6,75,0.00,,,0.00,WUHU21623XXSP,2013-01-20 00:30:00,
2013-01-19 18:36:00,-0.2,-6.6,29.75,NW,315,23.3,23.3,74,0.00,,,0.00,WUHU21623XXSP,2013-01-20 00:36:00,
2013-01-19 18:41:00,-0.6,-7.3,29.75,WNW,303,11.9,23.3,73,0.00,,,0.00,WUHU21623XXSP,2013-01-20 00:41:00,
2013-01-19 18:46:00,-0.6,-7.0,29.76,NW,312,10.3,19.2,74,0.00,,,0.00,WUHU21623XXSP,2013-01-20 00:46:00,
2013-01-19 18:51:00,-0.8,-7.1,29.76,WNW,298,14.8,19.2,74,0.00,,,0.00,WUHU21623XXSP,2013-01-20 00:51:00,
2013-01-19 18:57:00,-1.1,-7.8,29.77,WNW,298,11.1,20.1,73,0.00,,,0.00,WUHU21623XXSP,2013-01-20 00:57:00,
2013-01-19 19:02:00,-1.1,-7.8,29.78,West,270,19.9,20.1,73,0.00,,,0.00,WUHU21623XXSP,2013-01-20 01:02:00,
2013-01-19 19:07:00,-1.5,-8.1,29.78,NW,304,10.3,19.9,73,0.00,,,0.00,WUHU21623XXSP,2013-01-20 01:07:00,
2013-01-19 19:12:00,-1.7,-8.3,29.78,WNW,297,10.4,20.4,73,0.00,,,0.00,WUHU21623XXSP,2013-01-20 01:12:00,
2013-01-19 19:17:00,-2.0,-8.3,29.79,WNW,291,11.3,20.4,74,0.00,,,0.00,WUHU21623XXSP,2013-01-20 01:17:00,
2013-01-19 19:22:00,-2.0,-8.3,29.79,WNW,292,14.8,19.7,74,0.00,,,0.00,WUHU21623XXSP,2013-01-20 01:22:00,
2013-01-19 19:27:00,-2.4,-8.7,29.79,NW,311,11.1,19.7,74,0.00,,,0.00,WUHU21623XXSP,2013-01-20 01:27:00,
2013-01-19 19:32:00,-2.4,-8.7,29.80,WNW,301,9.7,20.1,74,0.00,,,0.00,WUHU21623XXSP,2013-01-20 01:32:00,
2013-01-19 19:37:00,-2.4,-8.7,29.80,WNW,292,12.1,20.1,74,0.00,,,0.00,WUHU21623XXSP,2013-01-20 01:37:00,
2013-01-19 19:42:00,-2.4,-8.7,29.81,NW,315,9.6,19.9,74,0.00,,,0.00,WUHU21623XXSP,2013-01-20 01:42:00,
2013-01-19 19:48:00,-2.4,-8.7,29.81,NW,315,12.5,19.9,74,0.00,,,0.00,WUHU21623XXSP,2013-01-20 01:48:00,
2013-01-19 19:53:00,-2.4,-8.7,29.82,NW,306,8.9,19.9,74,0.00,,,0.00,WUHU21623XXSP,2013-01-20 01:53:00,
2013-01-19 19:58:00,-2.6,-8.9,29.82,NW,307,11.9,19.9,74,0.00,,,0.00,WUHU21623XXSP,2013-01-20 01:58:00,
2013-01-19 20:04:00,-2.7,-8.8,29.82,NW,307,13.5,18.1,75,0.00,,,0.00,WUHU21623XXSP,2013-01-20 02:04:00,
2013-01-19 20:09:00,-2.7,-9.0,29.83,South,180,10.5,22.4,74,0.00,,,0.00,WUHU21623XXSP,2013-01-20 02:09:00,
2013-01-19 20:14:00,-2.7,-8.8,29.83,NW,311,11.1,22.4,75,0.00,,,0.00,WUHU21623XXSP,2013-01-20 02:14:00,
2013-01-19 20:19:00,-2.9,-9.0,29.83,NW,315,10.7,22.1,75,0.00,,,0.00,WUHU21623XXSP,2013-01-20 02:19:00,
2013-01-19 20:24:00,-3.1,-9.1,29.84,NW,317,9.9,18.1,75,0.00,,,0.00,WUHU21623XXSP,2013-01-20 02:24:00,
2013-01-19 20:29:00,-3.3,-9.3,29.84,NW,310,7.9,16.6,75,0.00,,,0.00,WUHU21623XXSP,2013-01-20 02:29:00,
2013-01-19 20:34:00,-3.3,-9.3,29.84,NW,307,10.2,16.3,75,0.00,,,0.00,WUHU21623XXSP,2013-01-20 02:34:00,
2013-01-19 20:39:00,-3.3,-9.3,29.85,NW,315,8.4,16.3,75,0.00,,,0.00,WUHU21623XXSP,2013-01-20 02:39:00,
2013-01-19 20:44:00,-3.5,-9.5,29.86,WNW,292,9.6,13.4,75,0.00,,,0.00,WUHU21623XXSP,2013-01-20 02:44:00,
2013-01-19 20:49:00,-3.5,-9.8,29.86,WNW,292,9.4,17.2,74,0.00,,,0.00,WUHU21623XXSP,2013-01-20 02:49:00,
2013-01-19 20:54:00,-3.6,-9.9,29.87,NW,304,8.5,17.2,74,0.00,,,0.00,WUHU21623XXSP,2013-01-20 02:54:00,
2013-01-19 20:59:00,-3.6,-9.7,29.87,WNW,292,9.8,13.4,75,0.00,,,0.00,WUHU21623XXSP,2013-01-20 02:59:00,
2013-01-19 21:04:00,-3.8,-10.1,29.87,WNW,292,12.5,15.0,74,0.00,,,0.00,WUHU21623XXSP,2013-01-20 03:04:00,
2013-01-19 21:09:00,-3.8,-9.9,29.88,NNW,337,11.0,15.4,75,0.00,,,0.00,WUHU21623XXSP,2013-01-20 03:09:00,
2013-01-19 21:14:00,-3.8,-9.9,29.88,NW,309,12.7,19.7,75,0.00,,,0.00,WUHU21623XXSP,2013-01-20 03:14:00,
2013-01-19 21:19:00,-3.8,-10.1,29.88,WNW,292,9.8,19.7,74,0.00,,,0.00,WUHU21623XXSP,2013-01-20 03:19:00,
2013-01-19 21:24:00,-4.2,-10.2,29.88,NW,307,10.4,17.0,75,0.00,,,0.00,WUHU21623XXSP,2013-01-20 03:24:00,
2013-01-19 21:30:00,-4.2,-10.2,29.89,NW,315,9.2,20.4,75,0.00,,,0.00,WUHU21623XXSP,2013-01-20 03:30:00,
2013-01-19 21:36:00,-4.2,-10.2,29.89,NW,316,7.9,20.4,75,0.00,,,0.00,WUHU21623XXSP,2013-01-20 03:36:00,
2013-01-19 21:42:00,-4.4,-10.4,29.90,NNW,337,11.2,17.7,75,0.00,,,0.00,WUHU21623XXSP,2013-01-20 03:42:00,
2013-01-19 21:47:00,-4.4,-10.4,29.91,NW,320,8.9,15.2,75,0.00,,,0.00,WUHU21623XXSP,2013-01-20 03:47:00,
2013-01-19 21:52:00,-4.7,-10.8,29.91,NW,315,9.6,15.7,75,0.00,,,0.00,WUHU21623XXSP,2013-01-20 03:52:00,
2013-01-19 21:57:00,-4.7,-10.8,29.91,NW,315,11.4,15.7,75,0.00,,,0.00,WUHU21623XXSP,2013-01-20 03:57:00,
2013-01-19 22:02:00,-4.7,-10.8,29.91,NNW,337,7.4,15.4,75,0.00,,,0.00,WUHU21623XXSP,2013-01-20 04:02:00,
2013-01-19 22:07:00,-4.7,-10.8,29.92,NW,315,15.7,16.1,75,0.00,,,0.00,WUHU21623XXSP,2013-01-20 04:07:00,
2013-01-19 22:13:00,-4.9,-10.9,29.92,WNW,292,9.4,16.3,75,0.00,,,0.00,WUHU21623XXSP,2013-01-20 04:13:00,
2013-01-19 22:18:00,-4.9,-10.9,29.92,WNW,295,9.2,16.3,75,0.00,,,0.00,WUHU21623XXSP,2013-01-20 04:18:00,
2013-01-19 22:23:00,-5.1,-11.4,29.93,NW,315,9.2,15.7,74,0.00,,,0.00,WUHU21623XXSP,2013-01-20 04:23:00,
2013-01-19 22:28:00,-5.1,-11.4,29.93,WNW,292,13.4,16.6,74,0.00,,,0.00,WUHU21623XXSP,2013-01-20 04:28:00,
2013-01-19 22:33:00,-5.1,-11.4,29.93,WNW,292,10.5,18.3,74,0.00,,,0.00,WUHU21623XXSP,2013-01-20 04:33:00,
2013-01-19 22:38:00,-5.3,-11.2,29.93,NW,306,9.6,18.3,75,0.00,,,0.00,WUHU21623XXSP,2013-01-20 04:38:00,
2013-01-19 22:43:00,-5.3,-11.2,29.93,NW,314,10.0,15.7,75,0.00,,,0.00,WUHU21623XXSP,2013-01-20 04:43:00,
2013-01-19 22:48:00,-5.3,-11.3,29.93,WNW,302,8.8,15.7,75,0.00,,,0.00,WUHU21623XXSP,2013-01-20 04:48:00,
2013-01-19 22:53:00,-5.4,-11.5,29.94,WNW,300,9.9,13.2,75,0.00,,,0.00,WUHU21623XXSP,2013-01-20 04:53:00,
2013-01-19 22:58:00,-5.4,-11.5,29.94,NW,310,7.5,13.6,75,0.00,,,0.00,WUHU21623XXSP,2013-01-20 04:58:00,
2013-01-19 23:01:00,-5.4,-11.5,29.94,WNW,292,8.1,13.6,75,0.00,,,0.00,WUHU21623XXSP,2013-01-20 05:01:00,
2013-01-19 23:03:00,-5.6,-11.6,29.94,WNW,292,11.2,13.6,75,0.00,,,0.00,WUHU21623XXSP,2013-01-20 05:03:00,
2013-01-19 23:04:00,-5.6,-11.4,29.94,WNW,299,9.4,13.6,75,0.00,,,0.00,WUHU21623XXSP,2013-01-20 05:04:00,
2013-01-19 23:09:00,-5.6,-11.6,29.94,NW,315,13.0,17.4,75,0.00,,,0.00,WUHU21623XXSP,2013-01-20 05:09:00,
2013-01-19 23:14:00,-5.8,-11.8,29.94,WNW,302,10.0,17.7,75,0.00,,,0.00,WUHU21623XXSP,2013-01-20 05:14:00,
2013-01-19 23:19:00,-5.8,-11.8,29.95,NW,315,7.6,17.7,75,0.00,,,0.00,WUHU21623XXSP,2013-01-20 05:19:00,
2013-01-19 23:24:00,-6.0,-12.0,29.95,NW,315,10.1,14.8,75,0.00,,,0.00,WUHU21623XXSP,2013-01-20 05:24:00,
2013-01-19 23:29:00,-6.0,-12.0,29.95,WNW,301,7.2,14.8,75,0.00,,,0.00,WUHU21623XXSP,2013-01-20 05:29:00,
2013-01-19 23:34:00,-6.2,-12.2,29.95,WNW,302,6.7,12.1,75,0.00,,,0.00,WUHU21623XXSP,2013-01-20 05:34:00,
2013-01-19 23:39:00,-6.2,-12.2,29.96,NW,305,10.0,16.3,75,0.00,,,0.00,WUHU21623XXSP,2013-01-20 05:39:00,
2013-01-19 23:44:00,-6.3,-12.4,29.96,NW,315,8.5,16.3,75,0.00,,,0.00,WUHU21623XXSP,2013-01-20 05:44:00,
2013-01-19 23:49:00,-6.5,-12.5,29.96,NW,315,12.5,12.5,75,0.00,,,0.00,WUHU21623XXSP,2013-01-20 05:49:00,
2013-01-19 23:54:00,-6.7,-12.7,29.96,NW,315,8.7,12.5,75,0.00,,,0.00,WUHU21623XXSP,2013-01-20 05:54:00,
2013-01-19 23:59:00,-6.7,-12.7,29.96,NW,315,8.1,12.5,75,0.00,,,0.00,WUHU21623XXSP,2013-01-20 05:59:00,